Regional Weather Roundup
Issued by NWS

Home | Current Version | Previous Version | Graphics & Text | Print | Product List | Glossary On
Versions: 1 2 3 4 5 6 7 8 9 10 11 12 13 14 15 16 17 18 19 20 21 22 23 24 25 26 27 28 29 30 31 32 33 34 35 36 37 38 39 40 41 42 43 44 45 46 47 48 49 50
000
ASUS43 KIND 270300
RWRIN

WEATHER ROUNDUP FOR INDIANA
NATIONAL WEATHER SERVICE INDIANAPOLIS IN
1100 PM EDT FRI MAY 26 2017

NOTE: "FAIR" INDICATES FEW OR NO CLOUDS BELOW 12,000 FEET WITH NO
SIGNIFICANT WEATHER AND/OR OBSTRUCTIONS TO VISIBILITY.

* - STATION DOES NOT REPORT WEATHER SUCH AS PRECIPITATION OR FOG.

+ - STATION NOT QUALITY CONTROLLED BY THE NATIONAL WEATHER SERVICE.
    USE DATA WITH CAUTION...ESPECIALLY DEWPOINT AND RELATIVE
    HUMIDITY OBSERVATIONS.

INZ001>003-010>013-019-020-270400-
NORTHWEST INDIANA

CITY           SKY/WX    TMP DP  RH WIND       PRES   REMARKS
GARY /AIRPORT/ MOCLDY    55  54  94 NE9       29.85R
MICHIGAN CITY+ CLOUDY    59  59 100 NE3       29.85R
MONTICELLO +   CLOUDY    64  63  94 CALM      29.80R
RENSSELAER +   CLOUDY    64  61  88 NE5       29.81R

$$

LMZ046-743>745-270400-
SOUTHERN LAKE MICHIGAN

STATION/POSITION TIME  TEMP    WIND        PRES    WAVE
                       AIR SEA DIR/SP/G            HT
                 (UTC) (F)     (DEG/KT/KT) (MB)    (FT)
BURNS HARBOR     0240   55      50/ 13/ 15 1011.2R
MICHIGAN CITY    0230   56      40/ 16/ 17   N/A
5NW MICH CITY    0250   53 53   20/ 12/ 17   N/A     3

$$

INZ004-005-014>016-021>024-270400-
NORTH CENTRAL INDIANA

CITY           SKY/WX    TMP DP  RH WIND       PRES   REMARKS
GOSHEN         LGT RAIN  61  57  87 NE9       29.86R
SOUTH BEND     CLOUDY    59  58  96 E7        29.86R

$$

INZ006>009-017-018-025>027-270400-
NORTHEAST INDIANA

CITY           SKY/WX    TMP DP  RH WIND       PRES   REMARKS
ANGOLA *+      CLOUDY    57  57 100 VRB3      29.88R
FORT WAYNE     TSTM      64  59  83 E12       29.82S
KENDALLVILLE + HVY RAIN  60  60 100 N9        29.88R

$$

INZ028-029-035-036-043>045-051>053-270400-
WEST CENTRAL INDIANA

CITY           SKY/WX    TMP DP  RH WIND       PRES   REMARKS
CRAWFORDSVL +  CLOUDY   N/A N/A N/A SE3       29.80S
GREENCASTLE +  CLOUDY    68  63  83 CALM      29.83R
LAFAYETTE      CLOUDY    66  66 100 SW3       29.79S
TERRE HAUTE    CLOUDY    74  62  66 SW9       29.81R

$$

INZ030>032-037>040-046>048-054>057-064-065-270400-
CENTRAL INDIANA

CITY           SKY/WX    TMP DP  RH WIND       PRES   REMARKS
GREENWOOD *+   CLOUDY    70  65  84 CALM      29.84S
INDIANAPOLIS   CLOUDY    67  66  97 E5        29.82R
-EAGLE CREEK   CLOUDY    68  66  93 CALM      29.82R
KOKOMO +       CLOUDY    67  64  90 S10       29.82S
SHELBYVILLE    CLOUDY    72  64  76 S8        29.83F

$$

INZ033-034-041-042-049-050-058-059-270400-
EAST CENTRAL INDIANA

CITY           SKY/WX    TMP DP  RH WIND       PRES   REMARKS
MUNCIE         CLOUDY    66  60  81 CALM      29.83R
RICHMOND +     LGT RAIN  63  59  88 W8        29.88R

$$

INZ060-061-067>069-081>083-085>088-270400-
SOUTHWEST INDIANA

CITY           SKY/WX    TMP DP  RH WIND       PRES   REMARKS
EVANSVILLE     CLOUDY    74  65  73 SW16      29.85R
HUNTINGBURG *+ CLOUDY    75  65  70 SW12      29.85R

$$

INZ062-063-066-070>080-084-089>092-270400-
SOUTH CENTRAL AND SOUTHEAST INDIANA

CITY           SKY/WX    TMP DP  RH WIND       PRES   REMARKS
BLOOMINGTON    CLOUDY    74  60  61 SW13      29.83R
MADISON *+     CLOUDY    72  63  73 S5        29.89R
SEYMOUR +      CLOUDY    75  61  60 S3        29.84R

$$




USA.gov is the U.S. government's official web portal to all federal, state and local government web resources and services.